KC5TIL-3 Weather Reports


Display with metric or nautical units.
time (UTC)temp
F
wind
direction
speed
MPH
gust
MPH
rain 1hr
in
rain 24hr
in
rain mn
in
humidity
%
barometer
mb
20260904073533 79 149 4.0 6.0 0.00 0.00 0.00 76 1010.8
20260904073035 79 182 5.0 10.0 0.00 0.00 0.00 76 1010.8
20260904072534 79 157 3.0 7.0 0.00 0.00 0.00 76 1010.8
20260904072036 79 121 3.0 8.0 0.00 0.00 0.00 76 1010.8
20260904071537 79 195 5.0 6.0 0.00 0.00 0.00 76 1010.8
20260904071036 79 184 3.0 7.0 0.00 0.00 0.00 76 1010.8
20260904070538 79 207 4.0 7.0 0.00 0.00 0.00 75 1010.8
20260904070040 79 125 4.0 7.0 0.00 0.00 0.00 75 1010.8
20260904065538 79 215 3.0 7.0 0.00 0.00 0.00 75 1010.8
20260904065036 79 168 3.0 6.0 0.00 0.00 0.00 74 1010.8
20260904064538 79 139 0.0 7.0 0.00 0.00 0.00 74 1010.8
20260904064036 79 139 3.0 6.0 0.00 0.00 0.00 73 1010.8
20260904063538 79 201 3.0 6.0 0.00 0.00 0.00 72 1010.8
20260904063040 79 191 4.0 8.0 0.00 0.00 0.00 71 1010.8
20260904062539 79 214 6.0 7.0 0.00 0.00 0.00 70 1010.8
20260904062040 79 160 7.0 10.0 0.00 0.00 0.00 69 1010.8
20260904061542 79 124 6.0 8.0 0.00 0.00 0.00 68 1010.8
20260904061036 79 202 6.0 12.0 0.00 0.00 0.00 68 1010.8
20260904060538 79 219 4.0 10.0 0.00 0.00 0.00 69 1010.8
20260904060040 79 234 6.0 10.0 0.00 0.00 0.00 69 1010.8
20260904055539 79 137 5.0 9.0 0.00 0.00 0.00 67 1010.8
20260904055041 79 140 4.0 9.0 0.00 0.00 0.00 66 1010.8
20260904054542 79 135 6.0 10.0 0.00 0.00 0.00 65 1010.8
20260904054041 79 135 7.0 11.0 0.00 0.00 0.00 65 1010.8
20260904053543 79 138 9.0 11.0 0.00 0.00 0.00 64 1010.8
20260904053045 79 125 9.0 15.0 0.00 0.00 0.00 64 1010.8
20260904052543 79 119 7.0 12.0 0.00 0.00 0.00 64 1010.8
20260904052045 79 126 9.0 13.0 0.00 0.00 0.00 65 1010.8
20260904051547 79 136 8.0 11.0 0.00 0.00 0.00 65 1010.8
20260904051041 79 206 6.0 12.0 0.00 0.00 0.00 64 1010.8
20260904050543 79 162 9.0 12.0 0.00 0.00 0.00 62 1010.8
20260904050045 79 133 7.0 10.0 0.00 0.00 0.00 63 1010.8
20260904045544 79 117 5.0 12.0 0.00 0.00 0.00 60 1010.8
20260904045040 79 140 10.0 12.0 0.00 0.00 0.00 55 1010.8
20260904044542 80 129 8.0 14.0 0.00 0.00 0.00 48 1010.8
20260904044041 81 133 8.0 12.0 0.00 0.00 0.00 46 1010.8
20260904043543 81 118 8.0 11.0 0.00 0.00 0.00 45 1010.8
20260904043045 81 104 7.0 13.0 0.00 0.00 0.00 45 1010.8
20260904042543 81 107 10.0 12.0 0.00 0.00 0.00 44 1010.8
20260904042045 81 129 10.0 17.0 0.00 0.00 0.00 44 1010.8
20260904041547 81 129 7.0 13.0 0.00 0.00 0.00 44 1010.8
20260904041046 81 136 9.0 14.0 0.00 0.00 0.00 44 1010.8
20260904040548 81 119 12.0 15.0 0.00 0.00 0.00 44 1010.8
20260904040049 81 117 9.0 12.0 0.00 0.00 0.00 42 1010.8
20260904035548 81 152 5.0 13.0 0.00 0.00 0.00 42 1010.8
20260904035050 81 122 11.0 17.0 0.00 0.00 0.00 42 1010.8
20260904034552 81 142 10.0 15.0 0.00 0.00 0.00 42 1010.8
20260904034050 81 114 7.0 12.0 0.00 0.00 0.00 41 1010.8
20260904033552 81 119 10.0 15.0 0.00 0.00 0.00 41 1010.8
20260904033054 82 132 10.0 12.0 0.00 0.00 0.00 41 1010.8
20260904032553 82 137 6.0 13.0 0.00 0.00 0.00 41 1010.8
20260904032055 82 121 8.0 11.0 0.00 0.00 0.00 41 1010.8
20260904031556 82 105 8.0 12.0 0.00 0.00 0.00 42 1009.8
20260904031055 82 133 9.0 13.0 0.00 0.00 0.00 41 1009.8
20260904030557 82 117 8.0 16.0 0.00 0.00 0.00 41 1009.8
20260904030049 82 124 10.0 12.0 0.00 0.00 0.00 41 1009.8
20260904025548 82 126 10.0 15.0 0.00 0.00 0.00 41 1009.8
20260904025050 82 119 9.0 15.0 0.00 0.00 0.00 41 1009.8
20260904024552 82 112 9.0 14.0 0.00 0.00 0.00 41 1009.8
20260904024050 83 115 11.0 13.0 0.00 0.00 0.00 41 1009.8
20260904023552 83 137 9.0 13.0 0.00 0.00 0.00 40 1009.8
20260904023054 83 132 9.0 12.0 0.00 0.00 0.00 40 1009.8
20260904022553 83 117 7.0 12.0 0.00 0.00 0.00 41 1009.8
20260904022049 83 116 8.0 14.0 0.00 0.00 0.00 41 1009.8
20260904021551 83 130 12.0 15.0 0.00 0.00 0.00 41 1009.8
20260904021050 83 129 10.0 15.0 0.00 0.00 0.00 41 1009.8
20260904020552 83 124 10.0 13.0 0.00 0.00 0.00 40 1009.8
20260904020054 84 139 10.0 13.0 0.00 0.00 0.00 38 1009.8
20260904015552 84 114 7.0 12.0 0.00 0.00 0.00 36 1009.8
20260904015054 84 108 8.0 11.0 0.00 0.00 0.00 35 1009.8
20260904014556 84 137 8.0 12.0 0.00 0.00 0.00 34 1008.8
20260904014050 84 132 6.0 16.0 0.00 0.00 0.00 32 1008.8
20260904013053 85 138 7.0 15.0 0.00 0.00 0.00 30 1008.8
20260904012542 85 148 10.0 13.0 0.00 0.00 0.00 29 1008.8
20260904012044 85 146 6.0 15.0 0.00 0.00 0.00 29 1008.8
20260904011546 85 162 10.0 17.0 0.00 0.00 0.00 29 1008.8
20260904011044 86 136 11.0 18.0 0.00 0.00 0.00 29 1008.8
20260904010546 86 120 9.0 13.0 0.00 0.00 0.00 28 1008.8
20260904010043 87 114 7.0 13.0 0.00 0.00 0.00 29 1008.8
20260904005542 87 104 10.0 15.0 0.00 0.00 0.00 29 1008.8
20260904005044 87 134 9.0 13.0 0.00 0.00 0.00 29 1008.8
20260904004541 87 121 7.0 12.0 0.00 0.00 0.00 30 1008.8
20260904004040 87 140 12.0 15.0 0.00 0.00 0.00 30 1008.8
20260904003542 87 147 9.0 15.0 0.00 0.00 0.00 29 1008.8
20260904003044 88 138 7.0 15.0 0.00 0.00 0.00 29 1008.8
20260904002542 88 136 9.0 16.0 0.00 0.00 0.00 29 1008.8
20260904002044 88 141 10.0 12.0 0.00 0.00 0.00 29 1008.8
20260904001546 88 128 9.0 14.0 0.00 0.00 0.00 29 1008.8
20260904001045 88 137 11.0 17.0 0.00 0.00 0.00 30 1008.8
20260904000546 88 135 12.0 16.0 0.00 0.00 0.00 30 1008.8
20260904000048 88 133 13.0 20.0 0.00 0.00 0.00 30 1008.8
20260903235543 88 133 14.0 18.0 0.00 0.00 0.00 30 1008.8
20260903235044 89 139 11.0 16.0 0.00 0.00 0.00 29 1008.8
20260903234546 89 107 11.0 16.0 0.00 0.00 0.00 29 1007.8
20260903234045 89 109 12.0 18.0 0.00 0.00 0.00 29 1007.8
20260903233542 89 132 11.0 15.0 0.00 0.00 0.00 29 1007.8
20260903233039 89 138 10.0 15.0 0.00 0.00 0.00 29 1007.8
20260903232538 89 124 12.0 15.0 0.00 0.00 0.00 29 1007.8
20260903231542 90 131 10.0 18.0 0.00 0.00 0.00 29 1007.8
20260903231036 90 137 8.0 18.0 0.00 0.00 0.00 30 1007.8
20260903230538 89 115 15.0 19.0 0.00 0.00 0.00 30 1007.8
20260903230035 90 111 10.0 14.0 0.00 0.00 0.00 30 1007.8
20260903225533 90 160 8.0 13.0 0.00 0.00 0.00 30 1007.8
20260903225021 89 148 10.0 17.0 0.00 0.00 0.00 30 1007.8
20260903224523 90 91 8.0 15.0 0.00 0.00 0.00 30 1007.8
20260903224022 90 135 10.0 15.0 0.00 0.00 0.00 29 1007.8
20260903223025 91 113 9.0 12.0 0.00 0.00 0.00 29 1007.8
20260903222524 90 107 11.0 17.0 0.00 0.00 0.00 30 1007.8
20260903221523 89 113 14.0 18.0 0.00 0.00 0.00 30 1007.8
20260903221022 90 111 15.0 15.0 0.00 0.00 0.00 31 1007.8
20260903220519 89 115 14.0 15.0 0.00 0.00 0.00 31 1007.8
20260903220021 90 117 12.0 12.0 0.00 0.00 0.00 31 1007.8
20260903215520 90 109 10.0 14.0 0.00 0.00 0.00 32 1007.8
20260903215022 89 117 10.0 14.0 0.00 0.00 0.00 32 1007.8
20260903214523 89 136 9.0 13.0 0.00 0.00 0.00 32 1008.8
20260903214022 90 112 7.0 13.0 0.00 0.00 0.00 31 1008.8
20260903213524 89 116 10.0 13.0 0.00 0.00 0.00 33 1008.8
20260903213026 90 124 9.0 12.0 0.00 0.00 0.00 32 1008.8
20260903212524 89 92 6.0 13.0 0.00 0.00 0.00 33 1008.8
20260903212026 90 149 10.0 12.0 0.00 0.00 0.00 33 1008.8
20260903211528 89 135 6.0 9.0 0.00 0.00 0.00 34 1008.8
20260903211027 89 119 6.0 11.0 0.00 0.00 0.00 34 1008.8
20260903210529 89 123 6.0 10.0 0.00 0.00 0.00 34 1008.8
20260903210030 88 147 7.0 11.0 0.00 0.00 0.00 35 1008.8
20260903205506 88 128 10.0 13.0 0.00 0.00 0.00 37 1008.8
20260903205008 88 127 8.0 11.0 0.00 0.00 0.00 36 1008.8
20260903204509 88 112 5.0 13.0 0.00 0.00 0.00 35 1008.8
20260903204009 89 231 6.0 13.0 0.00 0.00 0.00 35 1008.8
20260903203510 88 112 8.0 13.0 0.00 0.00 0.00 35 1008.8
20260903202510 88 150 7.0 9.0 0.00 0.00 0.00 35 1008.8
20260903202007 88 159 7.0 11.0 0.00 0.00 0.00 35 1008.8
20260903201504 88 126 5.0 14.0 0.00 0.00 0.00 37 1008.8
20260903201003 88 144 8.0 11.0 0.00 0.00 0.00 37 1008.8
20260903200505 88 128 5.0 15.0 0.00 0.00 0.00 37 1008.8
20260903200006 88 162 9.0 13.0 0.00 0.00 0.00 38 1008.8
20260903195505 87 132 9.0 14.0 0.00 0.00 0.00 38 1008.8
20260903195007 88 132 7.0 12.0 0.00 0.00 0.00 38 1008.8
20260903194509 88 153 7.0 9.0 0.00 0.00 0.00 38 1009.8
20260903194007 88 124 6.0 10.0 0.00 0.00 0.00 38 1009.8
20260903193509 88 200 5.0 10.0 0.00 0.00 0.00 38 1009.8
20260903193011 88 133 6.0 10.0 0.00 0.00 0.00 38 1009.8
20260903192505 87 173 5.0 12.0 0.00 0.00 0.00 38 1009.8
20260903192007 87 186 5.0 12.0 0.00 0.00 0.00 39 1009.8
20260903191508 87 247 7.0 15.0 0.00 0.00 0.00 39 1009.8
20260903191007 87 213 8.0 15.0 0.00 0.00 0.00 39 1009.8
20260903190504 87 128 7.0 16.0 0.00 0.00 0.00 40 1009.8
20260903190006 87 146 8.0 11.0 0.00 0.00 0.00 38 1009.8
20260903185504 87 128 6.0 12.0 0.00 0.00 0.00 38 1009.8
20260903184508 88 124 8.0 14.0 0.00 0.00 0.00 35 1009.8
20260903184007 88 125 7.0 16.0 0.00 0.00 0.00 34 1009.8
20260903183509 88 192 8.0 13.0 0.00 0.00 0.00 33 1009.8
20260903183011 88 223 6.0 14.0 0.00 0.00 0.00 32 1010.8
20260903182509 88 134 7.0 11.0 0.00 0.00 0.00 32 1010.8
20260903182011 89 212 8.0 15.0 0.00 0.00 0.00 32 1010.8
20260903181513 88 177 10.0 12.0 0.00 0.00 0.00 31 1010.8
20260903181011 89 130 7.0 16.0 0.00 0.00 0.00 31 1010.8
20260903180509 88 137 9.0 13.0 0.00 0.00 0.00 32 1010.8
20260903180006 89 110 6.0 15.0 0.00 0.00 0.00 32 1010.8
20260903175456 88 136 12.0 13.0 0.00 0.00 0.00 33 1010.8
20260903174957 88 204 7.0 12.0 0.00 0.00 0.00 32 1010.8
20260903174459 88 222 8.0 17.0 0.00 0.00 0.00 32 1010.8
20260903173953 88 214 7.0 15.0 0.00 0.00 0.00 32 1010.8
20260903173455 88 123 11.0 10.0 0.00 0.00 0.00 34 1010.8
20260903172957 89 125 5.0 11.0 0.00 0.00 0.00 34 1010.8
20260903172445 88 210 4.0 12.0 0.00 0.00 0.00 36 1010.8
20260903171947 87 109 7.0 11.0 0.00 0.00 0.00 37 1010.8
20260903171449 87 173 9.0 12.0 0.00 0.00 0.00 38 1010.8
20260903170948 87 110 6.0 12.0 0.00 0.00 0.00 38 1010.8
20260903170445 88 201 6.0 12.0 0.00 0.00 0.00 38 1010.8
20260903165946 87 121 9.0 13.0 0.00 0.00 0.00 39 1010.8
20260903165445 87 134 7.0 10.0 0.00 0.00 0.00 39 1010.8
20260903164947 86 227 7.0 10.0 0.00 0.00 0.00 41 1010.8
20260903164449 86 187 7.0 12.0 0.00 0.00 0.00 41 1010.8
20260903163947 86 225 7.0 10.0 0.00 0.00 0.00 41 1010.8
20260903163449 85 223 3.0 9.0 0.00 0.00 0.00 44 1010.8
20260903162951 85 195 7.0 12.0 0.00 0.00 0.00 43 1010.8
20260903162450 85 222 7.0 11.0 0.00 0.00 0.00 46 1010.8
20260903161952 84 98 7.0 9.0 0.00 0.00 0.00 48 1010.8
20260903161453 84 133 6.0 12.0 0.00 0.00 0.00 48 1010.8
20260903160952 84 136 7.0 7.0 0.00 0.00 0.00 47 1010.8
20260903160449 84 165 3.0 10.0 0.00 0.00 0.00 50 1010.8
20260903155951 83 137 5.0 8.0 0.00 0.00 0.00 50 1010.8
20260903155449 83 132 6.0 10.0 0.00 0.00 0.00 53 1010.8
20260903154453 83 98 5.0 9.0 0.00 0.00 0.00 56 1010.8
20260903153952 82 131 5.0 9.0 0.00 0.00 0.00 58 1010.8
20260903153454 82 115 6.0 10.0 0.00 0.00 0.00 59 1010.8
20260903152955 81 134 5.0 10.0 0.00 0.00 0.00 60 1010.8
20260903152454 81 155 5.0 9.0 0.00 0.00 0.00 61 1010.8
20260903151956 81 200 4.0 10.0 0.00 0.00 0.00 62 1010.8
20260903151458 81 114 7.0 10.0 0.00 0.00 0.00 63 1010.8
20260903150956 80 127 7.0 10.0 0.00 0.00 0.00 63 1010.8
20260903150458 80 109 7.0 11.0 0.00 0.00 0.00 63 1010.8
20260903150000 80 116 5.0 10.0 0.00 0.00 0.00 63 1010.8
20260903145001 80 106 7.0 8.0 0.00 0.00 0.00 64 1010.8
20260903144502 80 146 6.0 9.0 0.00 0.00 0.00 64 1010.8
20260903144001 80 126 6.0 9.0 0.00 0.00 0.00 64 1010.8
20260903143503 80 98 6.0 9.0 0.00 0.00 0.00 65 1010.8
20260903143005 79 125 7.0 10.0 0.00 0.00 0.00 66 1010.8
20260903142459 79 124 7.0 11.0 0.00 0.00 0.00 66 1010.8
20260903142001 79 125 5.0 10.0 0.00 0.00 0.00 67 1010.8
20260903141502 79 119 8.0 9.0 0.00 0.00 0.00 66 1010.8
20260903141001 79 109 3.0 9.0 0.00 0.00 0.00 66 1010.8
20260903140503 79 118 7.0 11.0 0.00 0.00 0.00 66 1010.8
20260903140005 79 125 7.0 8.0 0.00 0.00 0.00 66 1010.8
20260903135504 79 125 4.0 10.0 0.00 0.00 0.00 67 1010.8
20260903134946 78 135 7.0 8.0 0.00 0.00 0.00 68 1010.8
20260903134448 78 134 7.0 8.0 0.00 0.00 0.00 68 1010.8
20260903133946 78 126 5.0 10.0 0.00 0.00 0.00 68 1010.8
20260903133448 78 123 6.0 10.0 0.00 0.00 0.00 69 1010.8
20260903132950 78 120 8.0 10.0 0.00 0.00 0.00 70 1010.8
20260903132449 78 131 6.0 10.0 0.00 0.00 0.00 70 1010.8
20260903131951 78 129 7.0 8.0 0.00 0.00 0.00 70 1010.8
20260903131448 78 148 5.0 8.0 0.00 0.00 0.00 70 1010.8
20260903130947 78 117 6.0 8.0 0.00 0.00 0.00 70 1010.8
20260903130449 78 114 7.0 7.0 0.00 0.00 0.00 71 1010.8
20260903125950 78 119 5.0 7.0 0.00 0.00 0.00 70 1010.8
20260903125449 78 119 5.0 9.0 0.00 0.00 0.00 70 1010.8
20260903124951 78 116 7.0 7.0 0.00 0.00 0.00 70 1010.8
20260903124453 78 114 5.0 7.0 0.00 0.00 0.00 70 1010.8
20260903123951 78 135 4.0 7.0 0.00 0.00 0.00 69 1010.8
20260903123453 77 133 5.0 7.0 0.00 0.00 0.00 70 1010.8
20260903122955 77 112 6.0 7.0 0.00 0.00 0.00 70 1010.8
20260903122454 77 119 6.0 8.0 0.00 0.00 0.00 69 1010.8
20260903121956 77 131 7.0 9.0 0.00 0.00 0.00 69 1010.8
20260903121457 77 129 4.0 8.0 0.00 0.00 0.00 69 1010.8
20260903120956 77 120 4.0 10.0 0.00 0.00 0.00 69 1010.8
20260903120458 77 120 5.0 11.0 0.00 0.00 0.00 69 1010.8
20260903120000 77 127 8.0 9.0 0.00 0.00 0.00 68 1010.8
20260903115458 77 109 6.0 10.0 0.00 0.00 0.00 68 1010.8
20260903114956 77 110 6.0 10.0 0.00 0.00 0.00 68 1010.8
20260903114457 77 115 6.0 11.0 0.00 0.00 0.00 68 1010.8
20260903113956 77 128 7.0 10.0 0.00 0.00 0.00 67 1010.8
20260903113449 77 111 7.0 10.0 0.00 0.00 0.00 67 1010.8
20260903112946 77 119 6.0 10.0 0.00 0.00 0.00 66 1010.8
20260903112445 77 109 7.0 10.0 0.00 0.00 0.00 66 1010.8
20260903111946 77 105 7.0 10.0 0.00 0.00 0.00 65 1010.8
20260903111448 77 104 7.0 9.0 0.00 0.00 0.00 64 1009.8
20260903110947 77 109 7.0 9.0 0.00 0.00 0.00 64 1009.8
20260903105946 77 119 6.0 8.0 0.00 0.00 0.00 64 1009.8
20260903105444 77 114 6.0 8.0 0.00 0.00 0.00 64 1009.8
20260903104937 78 109 6.0 8.0 0.00 0.00 0.00 64 1009.8
20260903104439 77 116 6.0 8.0 0.00 0.00 0.00 63 1009.8
20260903103937 78 119 7.0 8.0 0.00 0.00 0.00 63 1009.8
20260903103439 77 115 7.0 9.0 0.00 0.00 0.00 63 1009.8
20260903102941 77 115 7.0 9.0 0.00 0.00 0.00 63 1009.8
20260903102439 78 126 6.0 8.0 0.00 0.00 0.00 62 1009.8
20260903101941 78 109 6.0 7.0 0.00 0.00 0.00 62 1009.8
20260903101439 78 110 6.0 5.0 0.00 0.00 0.00 62 1009.8
20260903100932 78 117 3.0 5.0 0.00 0.00 0.00 62 1009.8
20260903100434 78 116 0.0 6.0 0.00 0.00 0.00 61 1009.8
20260903095936 78 116 3.0 7.0 0.00 0.00 0.00 61 1009.8
20260903095435 78 116 5.0 7.0 0.00 0.00 0.00 60 1009.8
20260903094937 78 119 6.0 6.0 0.00 0.00 0.00 60 1009.8
20260903094438 78 127 5.0 6.0 0.00 0.00 0.00 60 1009.8
20260903093937 78 162 4.0 0.0 0.00 0.00 0.00 60 1009.8
20260903092941 78 170 0.0 0.0 0.00 0.00 0.00 59 1009.8
20260903091941 78 170 0.0 0.0 0.00 0.00 0.00 58 1009.8
20260903091443 78 170 0.0 0.0 0.00 0.00 0.00 58 1009.8
20260903090942 78 170 0.0 0.0 0.00 0.00 0.00 58 1009.8
20260903090444 78 170 0.0 0.0 0.00 0.00 0.00 58 1009.8
20260903085945 78 170 0.0 0.0 0.00 0.00 0.00 57 1009.8
20260903085444 78 170 0.0 0.0 0.00 0.00 0.00 56 1009.8
20260903084946 79 170 0.0 3.0 0.00 0.00 0.00 56 1009.8
20260903084448 78 170 0.0 6.0 0.00 0.00 0.00 56 1010.8
20260903083946 78 170 0.0 4.0 0.00 0.00 0.00 55 1010.8
20260903083448 79 172 0.0 4.0 0.00 0.00 0.00 55 1010.8
20260903082950 79 172 0.0 3.0 0.00 0.00 0.00 54 1010.8
20260903082449 79 173 0.0 0.0 0.00 0.00 0.00 54 1010.8
20260903081951 79 173 0.0 4.0 0.00 0.00 0.00 53 1010.8
20260903081452 79 173 0.0 4.0 0.00 0.00 0.00 52 1010.8
20260903080951 79 173 3.0 3.0 0.00 0.00 0.00 52 1010.8
20260903080453 79 171 0.0 5.0 0.00 0.00 0.00 51 1010.8
20260903075955 79 155 0.0 4.0 0.00 0.00 0.00 51 1009.8
20260903075453 79 163 3.0 4.0 0.00 0.00 0.00 51 1009.8
20260903074955 79 129 3.0 6.0 0.00 0.00 0.00 50 1009.8
20260903074457 79 129 0.0 6.0 0.00 0.00 0.00 50 1010.8